This demonstration page uses our WeatherBlox Daily Observations layout. Learn more.

Left ArrowRight Arrow

38.20091, -84.87328

Hourly Observations for July 31, 2018

Temp ( °F °C ) Dew Point ( °F °C ) Humidity (%) Winds ( mph kmh ) Pressure ( in mb ) Visibility ( mi km ) Precip ( " mm )
12:53 am 00:53 Mostly Clear 73 22.8 69 20.6 87 87 Calm 29.96 1014 10 16 0.00 0.00
1:53 am 01:53 Cloudy 73 22.8 69 20.6 87 87 N 3 6 29.93 1014 10 16 0.00 0.00
2:31 am 02:31 Cloudy with Nearby Thunderstorms 72 22.2 68 20 87 87 NNE 3 6 29.91 1013 10 16 0.00 0.00
2:50 am 02:50 Cloudy with Nearby Thunderstorms 72 22 70 21 94 94 WNW 10 17 29.94 1014 7 11 0.00 0.03
2:53 am 02:53 Cloudy with Nearby Thunderstorms 71 21.7 69 20.6 94 94 NW 12 19 29.93 1014 6 10 0.01 0.25
3:12 am 03:12 Cloudy with Thunderstorms 71 21.7 69 20.6 94 94 NNE 6 9 29.91 1013 6 10 0.02 0.51
3:29 am 03:29 Cloudy with Strong Thunderstorms 71 21.7 69 20.6 94 94 W 3 6 29.94 1014 2 3 0.15 3.81
3:39 am 03:39 Cloudy with Strong Thunderstorms 71 21.7 69 20.6 94 94 Calm 29.94 1014 1 2 0.34 8.64
3:53 am 03:53 Cloudy with Strong Thunderstorms 70 21.1 69 20.6 97 97 E 8 13 29.93 1014 2 2 0.51 12.95
4:02 am 04:02 Cloudy with Strong Thunderstorms 70 21.1 69 20.6 97 97 NE 8 13 29.91 1013 2 3 0.11 2.79
4:12 am 04:12 Cloudy with Thunderstorms 70 21.1 69 20.6 97 97 NE 7 11 29.91 1013 3 5 0.14 3.56
4:21 am 04:21 Cloudy with Nearby Thunderstorms 70 21.1 69 20.6 97 97 NE 9 15 29.88 1012 5 8 0.14 3.56
4:29 am 04:29 Cloudy 70 21.1 69 20.6 97 97 NE 8 13 29.88 1012 7 11 0.14 3.56
4:39 am 04:39 Cloudy with Nearby Thunderstorms 70 21.1 68 20 93 93 VRB 5 7 29.88 1012 9 14 0.15 3.81
4:53 am 04:53 Cloudy with Thunderstorms 70 21.1 68 20 93 93 W 8 13 29.92 1013 6 10 0.18 4.57
4:58 am 04:58 Cloudy with Strong Thunderstorms 70 21.1 68 20 93 93 VRB 5 7 29.91 1013 2 3 0.07 1.78
5:09 am 05:09 Cloudy with Thunderstorms 70 21.1 69 20.6 97 97 NNE 5 7 29.91 1013 3 5 0.11 2.79
5:17 am 05:17 Cloudy with Nearby Thunderstorms 70 21.1 69 20.6 97 97 NNE 5 7 29.91 1013 6 10 0.11 2.79
5:28 am 05:28 Cloudy with Nearby Thunderstorms 70 21.1 69 20.6 97 97 NNE 6 9 29.88 1012 7 11 0.11 2.79
5:31 am 05:31 Cloudy 70 21.1 69 20.6 97 97 NNE 5 7 29.88 1012 8 13 0.11 2.79
5:51 am 05:51 Cloudy with Nearby Thunderstorms 70 21 70 21 100 100 ENE 6 9 29.88 1012 9 14 0.11 2.79
5:53 am 05:53 Cloudy with Nearby Thunderstorms 70 21.1 69 20.6 97 97 E 6 9 29.89 1012 9 14 0.11 2.79
6:03 am 06:03 Cloudy with Thunderstorms 71 21.7 69 20.6 94 94 Calm 29.88 1012 9 14 0.00 0.00
6:15 am 06:15 Cloudy with Thunderstorms 70 21.1 69 20.6 97 97 Calm 29.91 1013 4 6 0.02 0.51
6:25 am 06:25 Cloudy with Strong Thunderstorms 70 21.1 68 20 93 93 Calm 29.91 1013 2 3 0.13 3.30
6:29 am 06:29 Cloudy with Strong Thunderstorms 70 21.1 69 20.6 97 97 NE 5 7 29.88 1012 1 1 0.29 7.37
6:38 am 06:38 Cloudy with Thunderstorms 70 21.1 68 20 93 93 E 7 11 29.88 1012 1 2 0.36 9.14
6:41 am 06:41 Cloudy with Thunderstorms 70 21.1 69 20.6 97 97 E 7 11 29.88 1012 3 5 0.36 9.14
6:53 am 06:53 Cloudy with Nearby Thunderstorms 70 21.1 68 20 93 93 E 8 13 29.90 1013 8 13 0.36 9.14
6:58 am 06:58 Cloudy with Nearby Thunderstorms 70 21.1 69 20.6 97 97 ENE 7 11 29.88 1012 4 6 0.06 1.52
7:05 am 07:05 Cloudy with Strong Thunderstorms 70 21.1 69 20.6 97 97 ENE 5 7 29.91 1013 2 3 0.13 3.30
7:10 am 07:10 Cloudy with Thunderstorms 70 21.1 69 20.6 97 97 VRB 3 6 29.91 1013 3 5 0.15 3.81
7:14 am 07:14 Cloudy with Strong Thunderstorms 70 21.1 68 20 93 93 VRB 3 6 29.91 1013 2 3 0.29 7.37
7:20 am 07:20 Cloudy with Strong Thunderstorms 70 21.1 68 20 93 93 N 6 9 29.91 1013 1 2 0.40 10.16
7:31 am 07:31 Cloudy with Strong Thunderstorms 69 20.6 68 20 96 96 NE 6 9 29.91 1013 2 2 0.57 14.48
7:38 am 07:38 Cloudy with Strong Thunderstorms 69 20.6 68 20 96 96 WNW 6 9 29.91 1013 1 2 0.70 17.78
7:53 am 07:53 Cloudy with Nearby Thunderstorms 69 20.6 68 20 96 96 N 7 11 29.92 1013 1 1 1.01 25.65
8:01 am 08:01 Cloudy with Nearby Thunderstorms 69 20.6 67 19.4 93 93 N 6 9 29.91 1013 1 2 0.02 0.51
8:04 am 08:04 Cloudy with Nearby Thunderstorms 69 20.6 67 19.4 93 93 N 7 11 29.91 1013 3 5 0.02 0.51
8:11 am 08:11 Cloudy 69 20.6 68 20 96 96 NNW 5 7 29.91 1013 8 13 0.02 0.51
8:53 am 08:53 Cloudy with Light Rain 69 20.6 67 19.4 93 93 N 3 6 29.93 1013 7 11 0.05 1.27
9:53 am 09:53 Cloudy 71 21.7 68 20 90 90 NNE 5 7 29.93 1014 10 16 0.00 0.03
10:03 am 10:03 Cloudy 71 21.7 68 20 90 90 N 3 6 29.91 1013 10 16 0.00 0.00
10:53 am 10:53 Cloudy 72 22.2 68 20 87 87 Calm 29.92 1013 10 16 0.00 0.00
11:53 am 11:53 Cloudy 74 23.3 69 20.6 85 85 S 6 9 29.92 1013 10 16 0.00 0.00
12:15 pm 12:15 Cloudy 75 23.9 70 21.1 84 84 SSW 8 13 29.91 1013 10 16 0.00 0.00
12:53 pm 12:53 Mostly Cloudy 78 25.6 70 21.1 76 76 VRB 5 7 29.90 1013 10 16 0.00 0.00
1:03 pm 13:03 Mostly Cloudy 78 25.6 70 21.1 76 76 VRB 6 9 29.91 1013 10 16 0.00 0.00
1:33 pm 13:33 Mostly Cloudy 80 26.7 71 21.7 74 74 VRB 6 9 29.91 1013 10 16 0.00 0.00
1:53 pm 13:53 Mostly Cloudy 81 27.2 70 21.1 69 69 SSW 9 15 29.90 1012 10 16 0.00 0.00
2:51 pm 14:51 Mostly Cloudy 82 28 70 21 66 66 SW 12 19 29.88 1012 10 16 0.00 0.00
2:53 pm 14:53 Mostly Cloudy 81 27.2 69 20.6 67 67 SW 12 19 29.88 1012 10 16 0.00 0.00
3:08 pm 15:08 Mostly Cloudy 82 27.8 69 20.6 65 65 SW 15 24 29.88 1012 10 16 0.00 0.00
3:53 pm 15:53 Sunny 82 27.8 68 20 63 63 SW 13 20 29.87 1012 10 16 0.00 0.00
4:53 pm 16:53 Mostly Sunny 81 27.2 68 20 65 65 SW 10 17 29.88 1012 10 16 0.00 0.00
5:53 pm 17:53 Sunny 80 26.7 66 18.9 62 62 SW 12 19 29.88 1012 10 16 0.00 0.00
6:53 pm 18:53 Sunny 79 26.1 68 20 69 69 WSW 5 7 29.87 1012 10 16 0.00 0.00
7:53 pm 19:53 Sunny 76 24.4 67 19.4 74 74 VRB 3 6 29.89 1012 10 16 0.00 0.00
8:53 pm 20:53 Clear 74 23.3 65 18.3 74 74 WSW 3 6 29.90 1013 10 16 0.00 0.00
9:53 pm 21:53 Clear 73 22.8 65 18.3 76 76 Calm 29.91 1013 10 16 0.00 0.00
10:53 pm 22:53 Clear 71 21.7 66 18.9 84 84 Calm 29.94 1014 10 16 0.00 0.00
11:53 pm 23:53 Clear 71 21.7 66 18.9 84 84 W 3 6 29.93 1014 10 16 0.00 0.00

Powered by AerisWeather